Terminal Aerodrome Forecast
Issued by NWS

Home | Current Version | Previous Version | Text Only | Print | Product List | Glossary On
Versions: 1 2 3 4 5 6 7 8 9 10 11 12 13 14
000
FTUS41 KCAR 292300
TAFHUL
TAF
KHUL 292320Z 3000/3024 19003KT P6SM SCT250
     FM301500 21010G18KT P6SM FEW070 BKN150=

USA.gov is the U.S. government's official web portal to all federal, state and local government web resources and services.